Location: Bailleul
(50.3375°N, 2.8513°E)
Time: 09:10:53
(UTC+00:00)

Meteor 1-14 Rocket - Pass Details

Date: 19 April 2021
Orbit: 834 x 918 km, 81.3° (Epoch: 05 May)

Event Time Altitude Azimuth Distance (km) Brightness Sun altitude
Rises 23:08:23 0° 349° (NNW) 3,569 8.7 -27.6°
Reaches altitude 10° 23:10:54 10° 352° (N) 2,625 7.7 -27.6°
Maximum altitude 23:16:52 66° 75° (ENE) 1,001 4.5 -27.8°
Enters shadow 23:17:18 64° 99° (E) 1,015 4.4 -27.8°
